Погода в Ефремове

Погода в Ефремове : погода сейчас, прогноз погоды и архив. Всё, что Вы хотите узнать о погоде в Ефремове!

Поиск расширенной информации на нашем сайте:

Другие новости

Новости СМИ2

Главная страница сайта

Новости сайта

03.07.2017

Напоминаем, что на нашем специализированном сайте Метеоцентр.Азия вы можете получить высокодетализированные автоматические прогнозы погоды по пунктам России, СНГ и мира в авиационном формате (включающие направление и скорость ветра, видимость, явления погоды, количество и форму облачности, нижнюю и верхнюю границу облачности).


Погода в Ефремове - сегодня

Время (UTC), дата Ветер
(°,м/с) 
Видим.   Явления Облачность Т
(°С)
Тd
(°С)
f(%) Тe
(°С)
Pmin
(гПа)
dP
(гПа)
Po
(мм)
O2
(г/м3)
Тmin Tmax R s Состояние
почвы
18 18.01.18 150 (ЮВ) 4{11}  10 км    10/10 300 м 
[St]
-3.1 -5 87 -6  1013.8  740  302    -2.8     
21 18.01.18 150 (ЮВ) 10 км    10/10 300 м 
[St]
-4.5 -8.4 74 -7  1014.7  0.8  740  304           
00 19.01.18 130 (ЮВ) 10 км    10/10 300 м 
[St]
-9.5 -14.9 65 -12  1015.4  0.1  740  310           
03 19.01.18 130 (ЮВ) 10 км    ясно 
-11.7 -15.9 71 -16  1015.2  -0.5  740  313  -11.7         
06 19.01.18 130 (ЮВ) 4{10}  10 км    8/0 средняя, верхняя 
[Ac trans|Cs]
-11.7 -14.1 82 -16  1015.4  0.2  740  313  -11.9      равномерный
сухой снег
100% 
09 19.01.18 130 (ЮВ) 10 км    10/0 верхняя 
[Cs]
-9.2 -13 74 -14  1015.8  0.7  741  310           
12 19.01.18 120 (ЮВ) 4{10}  10 км    10/0 средняя, верхняя 
[Ac trans|Cs]
-8.8 -12.2 76 -13  1015.8  0.1  741  310           
15 19.01.18 120 (ЮВ) 10 км    10/0 средняя 
[As op]
-7.6 -10.9 77 -12  1015.8  0.1  741  308           
18 19.01.18 120 (ЮВ) 10 км    10/10 300 м 
[St]
-7.6 -12.7 67 -11  1014.6  -1.1  740  308    -7.4       
21 19.01.18 120 (ЮВ) 4000 м  слаб. снег  10/10 300 м 
[Frnb|Ns]
-8.4 -10.5 85 -12  1014.2  -0.5  740  308           
00 20.01.18 120 (ЮВ) 1000 м  снег  10/10 200 м 
[Frnb|Ns]
-9 -10.4 90 -12  1013.9  -0.3  739  309           
03 20.01.18 130 (ЮВ) 2000 м  слаб. снег  10/10 300 м 
[Frnb|Ns]
-9.6 -10.9 90 -13  1012.8  -1  738  309  -9.6       
06 20.01.18 140 (ЮВ) 6000 м  слаб. снег  10/10 300 м 
[Frnb|Ns]
-8.7 -10 90 -12  1012.4  -0.3  738  308  -9.6    13  равномерный
сухой снег
100% 
09 20.01.18 150 (ЮВ) 5000 м  слаб. снег  10/10 300 м 
[Frnb|Ns]
-7.1 -8.3 91 -9  1011.9  -0.3  738  306           
12 20.01.18 150 (ЮВ) 6000 м  слаб. снег  10/10 300 м 
[Frnb|Ns]
-5.1 -6.1 93 -5  1011.3  -0.4  738  304           
15 20.01.18 200 (Ю) 10 км  {снег}  10/10 300 м 
[St]
-2.1 -3.3 91 -4  1011.3  0.3  738  300         
18 20.01.18 200 (Ю) 10 км  {снег}  10/10 300 м 
[St]
-2.2 -4.6 84 -4  1011.7  0.5  738  300    -2.1     
21 20.01.18 190 (Ю) 10 км    10/10 300 м 
[St]
-2.5 -5 83 -4  1012.2  0.4  739  301           
00 21.01.18 190 (Ю) 10 км    10/10 600 м 
[St]
-2.8 -4.2 90 -4  1012  -0.3  738  301           
03 21.01.18 тихо ()   10 км    9/0 средняя 
[Ac trans]
-3.4 -4.2 94 -3  1011  -1  738  301  -3.4         
06 21.01.18 070 (В) 2800 м  дымка  10/10 100 м 
[St]
-3.2 -3.5 98 -3  1010.4  -0.5  737  301  -3.5      15  равномерный
сухой снег
100% 
09 21.01.18 080 (В) 2500 м  дымка{туман}  10/10 100 м 
[St]
-3.2 -3.6 97 -4  1009.4  -1  737  301           
12 21.01.18 010 (С) 2500 м  слаб. снег{туман}  10/10 100 м 
[Frnb|Ns]
-3.6 -3.9 98 -5  1008.3  -1.1  736  301           
15 21.01.18 340 (С) 10 км  {снег}  10/10 300 м 
[St]
-3.6 -4.5 93 -6  1008.9  0.6  736  301      0.9     
18 21.01.18 300 (СЗ) 10 км  {снег}  10/10 300 м 
[St]
-3.6 -5.6 86 -7  1010  1.1  737  301    -3.1  0.9     
Время (UTC), дата Ветер
(°,м/с) 
Видим.   Явления Облачность Т
(°С)
Тd
(°С)
f(%) Тe
(°С)
Pmin
(гПа)
dP
(гПа)
Po
(мм)
O2
(г/м3)
Тmin Tmax R s Состояние
почвы

Для получения пояснительной информации подведите курсор к названию столбца.

ПОГОДА в Ефремове - архив

Всё, что Вы хотите узнать о погоде в Ефремове - удобно и подробно!

Выберите нужную дату (начиная с 1 января 2015* года) и нажмите кнопку "Найти".
Будут отображены архивные сводки погоды по пункту Ефремов, начиная с указанной даты.


Отображать данные в формате CSV (для использования в таблицах Excel)


Внимание! Наш архив погоды предназначен исключительно для личного некоммерческого использования в познавательных целях. Если Вам необходимы официальные справки о состоянии погоды (для производственных, юридических, коммерческих и т.п. целей), обращайтесь в органы Росгидромета.

*Примечание: данная дата относится к архиву по метеостанциям СССР (Россия, СНГ, Балтия).
Архив по метеостанциям Зарубежной Европы и Азии (кроме Китая) хранится 10 дней, по другим регионам земного шара (Китай, Африка, Америка, Австралия, Океания) - 1 день.

Ефремов - район местоположения метеостанции


Название, широта, долгота, высота метеостанции:
Ефремов 53.2°ш. 38.1°д. 215 м над ур. моря [Российская Федерация]

Дополнительная информация

В oтличие oт бoльшинства пoгoдных сайтoв мы публикуем пoдрoбную метеoинфoрмацию в детальнoм прoфессиoнальнoм фoрмате.

Характеристики температуры и влажнoсти вoздуха измеряются на высoте 2 м в тени вдали oт зданий и деревьев.
Скoрoсть ветра измеряется на высoте 10 м (на урoвне рoста челoвека скoрoсть ветра ниже в 1.5-2 раза). Если метеoстанция нахoдится в гoрoде или в лесу, тo скoрoсть ветра занижена на 2-4 м/с пo сравнению с oткрытым местoм. Скoрoсть ветра над акватoриями крупных рек и oзёр, а также на вершинах хoлмoв на 2-5 м/с выше, чем в oбычных услoвиях.
Атмoсфернoе давление в разных тoчках местнoсти мoжет значительнo oтличаться oт давления на метеoстанции, в зависимoсти oт услoвий рельефа (при пoдъёме на 10 м давление пoнижается примернo на 1 мм рт.ст.).